Location: Boussy-Saint-Antoine
(48.6830°N, 2.5330°E)
Time: 09:16:38
(UTC+01:00)

ISS - Visible Passes

Search period start: 24 February 2018 00:00
Search period end: 06 March 2018 00:00
Orbit: 402 x 407 km, 51.6° (Epoch: 24 February)

Date Brightness Start Highest point End Pass type
(mag) Time Alt. Az. Time Alt. Az. Time Alt. Az.
28 Feb -1.3 06:15:13 10° S 06:17:37 19° SE 06:20:01 10° E visible
01 Mar -0.9 05:24:29 10° SSE 05:25:36 11° SE 05:26:44 10° ESE visible
01 Mar -3.2 06:58:17 10° SW 07:01:30 57° SSE 07:04:45 10° ENE visible
02 Mar -2.5 06:07:02 15° SSW 06:09:19 35° SSE 06:12:22 10° E visible
03 Mar -1.8 05:17:04 22° SE 05:17:12 22° SE 05:19:49 10° E visible
03 Mar -3.8 06:50:06 10° WSW 06:53:23 85° NNW 06:56:41 10° ENE visible
04 Mar -3.6 05:59:38 29° SW 06:01:06 66° SSE 06:04:22 10° ENE visible
05 Mar -2.5 05:09:28 37° ESE 05:09:28 37° ESE 05:11:59 10° ENE visible
05 Mar -3.6 06:42:07 10° W 06:45:18 59° NNW 06:48:32 10° ENE visible
